Location: Lake Arresoe
(56.0000°N, 12.5000°E)
Time: 16:31:36
(UTC+02:00)

Cosmos 2058 - Pass Details

Date: 29 July 2021
Orbit: 560 x 584 km, 82.5° (Epoch: 21 September)

Event Time Altitude Azimuth Distance (km) Brightness Sun altitude
Rises 23:20:37 0° 252° (WSW) 2,802 6.6 -11.6°
Reaches altitude 10° 23:24:15 10° 285° (WNW) 1,912 6.2 -11.8°
Maximum altitude 23:25:49 12° 307° (NW) 1,802 6.5 -11.9°
Drops below altitude 10° 23:27:23 10° 329° (NNW) 1,919 7.1 -12.0°
Sets 23:31:03 0° 2° (N) 2,827 7.6 -12.2°
